Wind_Speed
9 7 5 4 4 4 3 3 3 3 4 4 4 3 4 3 3 4 4 4 6 7 8 10 11 12 12 12 12 13 13 13 14 14 15 15 16 16 17 17 18 18 19 20 20 20 20 19 19
9 8 6 4 4 3 3 2 2 2 3 3 3 4 3 3 3 3 5 6 7 8 9 10 11 11 11 11 11 12 12 13 13 14 15 16 16 17 18 17 18 19 20 21 21 22 21 20 20
10 8 7 6 5 4 3 3 2 1 2 2 3 3 4 3 4 4 5 7 8 9 10 10 10 10 10 10 11 11 12 12 13 13 14 14 15 16 16 17 18 19 19 20 21 22 22 21 21
11 9 8 7 6 5 4 5 4 3 3 3 2 3 4 4 5 5 6 7 8 9 10 10 9 9 9 9 10 10 11 11 12 13 14 14 14 15 16 17 17 18 19 19 20 22 22 21 20
12 10 9 8 6 5 4 5 5 4 4 4 3 4 4 4 5 5 6 8 8 9 9 8 9 9 9 9 10 10 11 12 12 13 13 14 14 14 15 16 17 18 19 19 20 20 21 22 21
13 11 9 8 6 5 5 5 5 5 5 4 4 4 5 5 6 7 7 7 8 8 8 8 8 8 8 9 9 10 11 12 13 13 13 14 14 14 15 16 16 17 18 19 19 20 21 22 21
13 11 9 8 7 7 7 6 6 6 6 5 5 5 5 6 7 7 7 8 8 8 7 7 8 8 8 8 9 10 11 12 12 13 14 14 15 15 15 16 16 16 17 18 19 20 21 22 22
14 12 11 9 8 8 8 8 7 7 7 6 5 5 6 6 7 7 8 8 8 8 7 7 7 8 8 8 9 10 11 11 12 13 14 15 15 16 16 16 17 17 18 18 19 20 21 22 22
15 13 12 11 10 9 9 9 8 7 7 6 5 6 6 7 7 8 8 8 7 7 6 7 7 7 7 8 9 10 11 12 13 14 15 15 15 16 17 17 17 18 18 19 19 20 21 21 22
15 14 12 11 10 9 9 9 9 8 7 5 5 6 6 7 7 7 7 7 7 7 6 6 7 7 7 8 9 10 12 13 14 15 15 15 16 17 17 18 18 19 19 19 19 20 20 21 21
15 14 12 12 10 7 8 8 8 7 6 5 5 5 6 7 7 8 8 8 7 7 6 6 6 7 7 8 9 11 12 13 15 15 15 16 17 18 18 19 19 20 20 20 19 19 19 20 20
16 14 12 11 9 7 6 6 6 7 6 5 6 6 7 7 7 7 7 7 7 7 7 6 6 7 7 8 10 11 12 14 15 16 16 17 18 18 19 19 19 20 20 20 19 19 19 19 20
16 14 13 12 9 8 6 6 7 7 7 7 7 7 7 8 8 7 7 7 7 7 7 6 6 7 7 8 9 11 13 15 16 16 16 17 18 18 19 19 20 20 20 19 18 18 17 18 18
16 15 14 12 10 9 8 8 7 8 8 7 7 7 8 9 8 8 7 7 7 7 7 7 7 7 7 8 9 11 13 15 16 16 17 17 18 19 19 19 20 20 19 18 18 16 15 15 16
16 14 13 12 9 8 7 7 7 7 7 7 7 8 9 9 9 8 7 7 7 7 7 7 7 7 7 8 9 11 13 15 16 16 17 17 18 19 19 19 20 20 19 18 17 15 14 14 14
16 15 13 10 9 8 8 8 8 7 6 7 7 8 9 9 9 8 8 8 8 8 8 8 7 7 7 9 10 11 13 15 16 16 17 17 18 18 19 19 20 20 18 18 16 14 13 12 13
15 12 11 10 9 8 8 8 8 8 6 7 8 8 8 9 9 9 9 9 9 8 8 8 7 7 8 9 10 12 13 15 16 16 17 17 18 18 19 20 20 19 19 18 16 13 12 11 11
14 12 10 9 8 7 7 6 6 7 7 8 9 9 9 9 10 10 10 10 9 8 8 7 7 7 8 9 10 12 13 14 15 16 17 18 18 19 19 19 19 19 19 17 15 13 10 9 9
13 12 11 9 7 6 6 6 6 6 7 8 9 9 10 10 10 10 10 10 9 8 8 8 7 7 8 9 10 12 13 14 15 16 17 18 19 19 19 19 19 19 19 17 15 12 10 9 8
13 11 10 9 8 7 6 5 5 6 6 7 8 9 10 10 10 10 10 9 9 9 9 8 8 8 8 9 10 11 12 14 15 15 16 17 19 19 19 19 19 19 19 17 14 12 10 8 8
12 11 10 9 8 7 5 4 4 5 6 7 8 9 9 9 9 10 10 10 10 9 9 9 9 8 8 9 10 11 12 13 14 15 16 17 19 19 19 19 19 19 18 16 14 11 9 8 6
11 10 10 9 7 6 4 4 3 4 6 7 8 9 9 9 9 10 10 10 9 9 9 9 9 9 9 9 10 10 11 12 13 14 16 17 18 19 19 19 18 18 17 16 14 11 9 8 6
11 10 10 8 7 5 5 4 3 4 6 7 8 9 9 9 9 9 9 10 9 9 10 10 10 10 9 9 10 10 11 12 13 14 15 17 18 18 19 19 18 17 17 16 14 11 10 8 6
11 10 9 7 6 5 4 3 4 5 7 7 8 8 9 9 10 9 9 9 10 10 10 10 11 10 10 10 10 11 11 12 13 13 15 16 17 18 18 18 17 17 16 15 14 11 9 8 6
10 9 7 6 5 4 3 3 4 6 6 7 7 8 9 10 10 10 9 9 10 10 10 11 11 11 11 11 11 11 11 12 13 13 14 15 16 17 17 17 16 16 15 15 14 12 10 8 7
9 8 6 5 3 3 3 4 5 6 7 8 8 9 9 10 10 11 11 10 11 11 11 11 12 12 12 12 12 12 12 12 13 13 14 15 15 16 16 16 15 15 14 14 13 12 11 9 6
8 7 5 4 3 3 4 4 6 7 8 9 9 9 10 10 11 11 11 11 12 12 12 12 13 13 13 13 13 13 13 13 13 14 14 14 15 15 15 15 15 14 14 13 12 12 10 8 7
5 4 3 3 4 4 4 5 7 8 9 9 9 10 10 11 11 11 12 12 12 13 13 14 14 14 14 14 14 14 14 14 14 14 14 14 14 15 15 14 14 14 13 13 12 11 10 9 8
3 3 2 3 3 4 5 6 8 8 9 9 10 11 11 12 12 13 13 13 13 13 14 14 15 15 16 16 15 15 15 15 15 15 15 15 15 14 14 14 13 13 12 12 12 11 10 9 8
2 1 2 3 3 4 5 7 8 9 9 10 10 11 11 12 13 13 14 14 15 15 15 15 15 16 17 17 17 17 17 17 17 16 16 16 16 15 14 13 13 12 12 12 11 10 10 9 8
Wind_Direction
219 221 233 244 254 248 247 222 230 226 221 224 224 241 241 251 265 288 306 313 316 316 319 320 318 318 319 319 321 322 319 316 313 311 309 305 301 298 296 292 288 285 283 282 281 278 275 274 274
227 221 226 246 254 247 244 224 203 231 236 231 226 237 244 251 275 295 310 313 316 318 318 318 318 319 320 322 323 324 323 321 317 315 312 308 305 301 298 293 290 286 284 282 279 277 275 275 274
226 227 233 243 257 253 227 216 221 240 226 218 228 251 260 266 282 290 305 312 315 318 319 318 320 321 321 322 324 325 326 326 324 321 317 313 310 306 303 298 293 290 287 284 279 277 275 274 272
224 228 233 244 251 244 241 234 244 243 234 231 243 274 281 286 289 296 307 312 315 318 318 319 321 322 323 324 325 327 330 330 328 326 323 320 316 310 306 303 296 293 288 284 281 279 274 272 269
224 232 238 241 249 249 242 235 248 242 241 245 255 281 292 296 298 301 308 311 313 314 316 319 320 322 325 327 330 333 334 333 332 330 328 325 321 315 310 306 300 296 291 287 285 279 275 272 269
232 236 237 235 243 261 258 256 251 248 255 263 262 277 293 301 307 310 306 307 310 313 315 317 321 326 327 330 335 338 338 338 337 335 331 328 324 319 314 309 303 298 293 288 284 281 274 271 268
230 236 238 237 247 262 261 253 264 257 261 267 274 286 296 303 307 308 306 307 308 311 314 318 324 327 329 334 337 339 339 339 337 334 331 328 325 321 316 311 307 302 297 291 285 281 275 271 266
229 233 239 242 248 261 259 260 260 255 262 268 282 294 298 304 307 307 308 306 305 308 313 319 324 328 332 338 340 341 340 339 338 335 332 329 326 322 318 314 310 306 300 294 287 281 276 271 266
226 230 237 241 249 258 260 257 256 255 259 269 281 297 296 301 306 304 302 301 302 303 310 315 321 327 332 338 340 341 341 340 338 335 332 330 327 324 320 316 312 308 304 297 291 283 276 271 266
226 233 239 244 250 254 261 263 254 245 258 265 280 292 295 300 305 302 298 297 299 301 307 311 317 326 331 335 339 341 341 339 336 334 332 330 328 325 322 319 315 311 307 301 293 286 277 270 265
227 229 234 245 248 253 260 256 252 249 254 265 281 291 295 297 299 299 298 296 296 297 301 309 317 324 329 333 337 339 339 337 335 332 331 330 328 326 324 321 318 314 310 304 297 288 278 270 265
225 229 234 242 246 250 249 249 251 256 256 266 282 290 293 291 290 292 294 296 298 299 298 302 311 317 321 327 333 335 335 334 333 332 330 330 329 328 327 324 322 318 312 306 300 291 280 271 265
223 226 232 238 242 237 236 241 249 254 262 272 280 286 290 289 288 288 287 294 298 296 293 295 302 308 313 323 330 332 334 334 334 332 331 331 331 331 330 328 326 323 317 312 304 296 284 271 264
220 225 232 232 233 230 232 237 243 255 263 271 275 282 285 283 283 282 281 285 285 284 284 285 290 300 310 321 329 332 334 334 334 333 332 332 333 332 332 331 329 326 322 318 312 301 287 274 264
213 219 224 230 232 228 229 238 243 254 262 265 269 276 281 280 279 278 278 280 279 278 276 274 281 294 309 320 329 333 335 336 336 335 335 335 335 335 334 333 332 330 326 321 316 305 291 277 265
210 214 217 221 225 223 226 235 241 245 256 263 269 277 279 280 281 279 277 277 276 273 270 270 279 293 308 321 329 334 337 338 339 339 339 339 338 337 336 335 334 333 329 325 319 308 294 281 266
202 203 209 213 218 219 221 233 243 248 259 269 273 279 279 277 279 279 276 275 274 271 267 267 278 292 308 320 327 334 338 340 342 342 341 341 341 340 339 339 338 336 333 329 323 312 298 285 269
194 197 204 208 209 210 218 233 244 248 261 269 272 273 277 276 276 277 276 274 272 269 266 268 279 293 306 317 325 333 339 341 343 344 343 343 343 342 342 342 341 340 338 333 327 318 305 288 273
193 195 195 198 199 202 219 229 239 248 258 265 270 274 278 276 276 276 275 275 272 270 270 274 282 294 304 315 323 332 338 341 343 344 345 344 345 345 345 346 343 342 341 339 333 325 312 296 279
183 184 187 191 199 204 215 224 236 247 260 269 274 276 278 276 275 274 275 274 273 273 274 277 282 294 303 312 320 329 336 339 342 344 345 345 345 346 347 347 347 345 343 343 339 334 323 306 286
179 184 185 189 190 196 208 223 239 257 272 281 284 285 285 280 278 276 274 275 276 275 274 277 283 293 301 311 318 325 332 336 340 343 345 345 346 347 348 348 349 349 348 348 346 342 337 324 302
175 179 183 186 193 196 209 218 240 266 283 285 288 286 287 282 279 277 277 279 280 279 277 277 282 290 300 309 314 321 328 333 338 342 344 345 347 348 349 350 351 352 355 356 354 350 347 341 323
166 168 173 179 182 188 195 215 239 268 281 288 292 288 285 283 282 280 279 282 282 281 279 277 280 286 294 302 309 316 322 328 335 339 342 345 347 349 350 351 353 355 357 359 360 355 354 352 342
162 165 168 170 172 181 198 229 259 279 291 299 302 298 291 285 283 282 284 284 283 282 280 279 280 284 290 295 302 309 317 323 329 335 339 342 345 348 350 352 354 357 359 1 3 1 358 357 353
167 168 169 171 179 188 215 256 282 298 306 310 308 310 303 295 289 287 289 288 285 284 283 281 280 283 287 292 297 303 310 318 323 329 334 339 342 345 347 351 353 356 359 1 4 4 3 358 356
165 169 173 180 190 206 245 274 289 303 313 316 316 315 311 307 299 293 291 291 291 289 286 283 282 283 285 289 294 298 304 311 316 322 329 335 339 342 344 348 351 353 356 359 2 5 5 2 359
169 174 184 203 223 246 271 285 295 308 317 322 322 320 318 313 305 299 297 296 294 293 289 285 283 282 284 287 290 294 299 304 309 315 321 328 333 337 341 345 347 350 353 355 358 360 3 5 6
173 183 206 234 251 267 284 297 307 314 319 324 325 322 317 315 310 304 302 301 297 294 291 288 285 282 283 285 287 289 294 298 302 307 313 319 324 330 336 339 342 347 351 353 356 358 0 1 356
186 202 232 258 270 278 289 305 313 317 322 322 322 319 316 313 309 306 304 304 301 297 294 290 287 284 283 283 284 285 288 292 296 301 305 309 315 321 328 333 337 341 345 349 352 354 357 357 356
209 247 277 286 290 297 303 309 314 320 320 320 321 319 317 315 311 306 305 304 303 301 298 294 290 287 285 283 282 283 284 286 290 293 298 301 305 310 316 322 326 332 337 341 344 347 350 354 356
Height
5862 5864 5865 5867 5868 5869 5869 5870 5870 5871 5872 5873 5874 5875 5876 5877 5878 5880 5879 5877 5877 5876 5876 5875 5874 5873 5872 5871 5870 5869 5868 5866 5865 5864 5863 5862 5861 5861 5860 5860 5860 5860 5860 5860 5859 5860 5860 5861 5862
5862 5864 5866 5867 5867 5868 5869 5870 5871 5871 5872 5873 5873 5874 5875 5875 5876 5877 5876 5876 5876 5875 5875 5874 5873 5872 5871 5870 5869 5868 5866 5865 5864 5862 5861 5860 5859 5858 5858 5857 5857 5856 5856 5856 5856 5856 5856 5857 5858
5862 5863 5866 5866 5867 5868 5869 5870 5871 5872 5872 5873 5874 5874 5875 5875 5875 5876 5876 5875 5875 5874 5874 5873 5872 5871 5870 5869 5868 5866 5865 5864 5862 5861 5859 5858 5857 5856 5855 5854 5853 5853 5853 5852 5852 5852 5853 5853 5854
5861 5863 5865 5867 5866 5868 5869 5870 5870 5872 5872 5873 5874 5874 5874 5875 5875 5875 5875 5874 5874 5873 5873 5872 5871 5870 5869 5868 5866 5865 5864 5862 5861 5859 5858 5856 5855 5853 5852 5851 5850 5850 5849 5848 5848 5848 5848 5849 5850
5860 5862 5864 5865 5866 5867 5868 5869 5870 5871 5872 5872 5873 5874 5874 5874 5874 5874 5874 5873 5873 5873 5872 5871 5870 5869 5868 5867 5865 5864 5862 5861 5859 5857 5856 5854 5853 5851 5850 5849 5848 5846 5845 5845 5844 5844 5844 5845 5846
5859 5860 5863 5864 5866 5867 5868 5869 5870 5870 5871 5872 5873 5873 5873 5874 5873 5873 5873 5873 5872 5872 5871 5870 5869 5868 5866 5865 5864 5862 5861 5859 5858 5856 5854 5853 5851 5849 5848 5846 5845 5843 5842 5841 5840 5840 5840 5840 5841
5858 5860 5862 5864 5865 5866 5867 5868 5869 5870 5871 5872 5872 5872 5872 5872 5872 5872 5872 5872 5871 5871 5870 5869 5868 5867 5865 5864 5863 5861 5860 5858 5856 5854 5853 5851 5849 5847 5845 5843 5842 5840 5839 5837 5837 5836 5836 5836 5837
5856 5860 5860 5862 5864 5865 5867 5867 5868 5869 5870 5871 5871 5871 5871 5871 5871 5871 5871 5870 5870 5869 5868 5868 5867 5865 5864 5863 5862 5860 5859 5857 5855 5853 5851 5849 5847 5845 5843 5841 5839 5837 5835 5834 5833 5832 5832 5832 5832
5854 5858 5859 5861 5862 5864 5865 5866 5867 5868 5869 5869 5870 5870 5870 5870 5870 5870 5869 5869 5869 5868 5867 5866 5865 5864 5863 5862 5861 5859 5857 5856 5854 5851 5849 5847 5845 5842 5840 5838 5835 5833 5831 5830 5828 5827 5827 5826 5827
5853 5856 5857 5859 5861 5862 5864 5865 5866 5867 5867 5868 5869 5869 5869 5868 5868 5868 5868 5868 5867 5867 5866 5865 5864 5863 5862 5861 5859 5858 5856 5854 5852 5850 5847 5845 5842 5840 5837 5834 5832 5830 5827 5825 5824 5822 5821 5821 5822
5850 5853 5856 5857 5859 5861 5862 5863 5864 5865 5867 5867 5868 5868 5867 5867 5867 5867 5866 5866 5866 5865 5864 5864 5863 5862 5861 5860 5858 5857 5855 5853 5850 5848 5845 5843 5840 5837 5834 5831 5828 5826 5823 5821 5819 5817 5816 5816 5817
5849 5851 5854 5855 5857 5859 5861 5862 5863 5864 5866 5866 5867 5866 5866 5866 5866 5865 5865 5864 5864 5863 5863 5862 5862 5861 5860 5859 5857 5855 5853 5851 5849 5846 5843 5840 5837 5834 5831 5828 5825 5822 5819 5816 5814 5812 5811 5811 5811
5847 5850 5853 5854 5856 5858 5860 5861 5863 5864 5864 5865 5865 5865 5865 5865 5864 5864 5863 5863 5862 5862 5862 5861 5861 5860 5859 5858 5856 5854 5852 5850 5847 5844 5841 5838 5835 5831 5828 5825 5821 5818 5815 5812 5809 5807 5806 5805 5806
5846 5848 5851 5853 5855 5857 5859 5860 5862 5863 5863 5864 5864 5864 5863 5863 5863 5862 5862 5862 5861 5861 5861 5860 5860 5859 5858 5856 5855 5853 5851 5848 5845 5842 5839 5836 5832 5829 5825 5822 5818 5814 5811 5808 5805 5803 5801 5801 5801
5844 5848 5850 5852 5854 5856 5858 5860 5861 5862 5862 5862 5863 5862 5862 5862 5861 5861 5861 5860 5860 5860 5859 5859 5858 5858 5856 5855 5853 5851 5849 5846 5843 5840 5837 5833 5830 5826 5823 5819 5815 5811 5807 5804 5801 5799 5797 5797 5797
5843 5846 5849 5851 5853 5855 5859 5859 5860 5860 5860 5861 5861 5861 5861 5860 5860 5859 5859 5859 5858 5858 5858 5857 5857 5856 5855 5853 5852 5850 5847 5844 5842 5838 5835 5831 5828 5824 5820 5816 5812 5808 5804 5801 5798 5796 5794 5793 5793
5842 5845 5848 5851 5852 5854 5856 5857 5858 5859 5859 5860 5860 5860 5859 5859 5858 5857 5857 5857 5857 5856 5856 5856 5855 5854 5853 5851 5850 5848 5845 5843 5840 5836 5833 5830 5826 5822 5818 5814 5810 5806 5802 5798 5795 5793 5791 5790 5790
5841 5844 5847 5849 5851 5853 5855 5856 5857 5857 5858 5858 5858 5858 5858 5857 5856 5855 5855 5855 5855 5854 5854 5854 5853 5852 5851 5850 5848 5846 5844 5841 5838 5835 5832 5828 5824 5820 5816 5812 5808 5804 5800 5796 5792 5790 5788 5788 5788
5841 5843 5846 5848 5850 5852 5854 5855 5856 5856 5857 5857 5857 5856 5856 5855 5855 5854 5853 5853 5853 5852 5852 5852 5851 5850 5849 5848 5846 5844 5842 5840 5837 5834 5830 5827 5823 5819 5815 5810 5806 5802 5798 5794 5791 5788 5786 5785 5785
5840 5843 5845 5848 5849 5852 5853 5854 5855 5855 5856 5855 5855 5855 5854 5853 5853 5852 5852 5851 5851 5850 5850 5850 5849 5848 5847 5846 5844 5842 5840 5838 5835 5832 5829 5825 5822 5818 5813 5809 5805 5801 5797 5793 5789 5787 5785 5783 5783
5840 5843 5845 5847 5849 5851 5853 5854 5854 5854 5854 5854 5854 5853 5852 5852 5851 5850 5850 5849 5849 5848 5848 5847 5847 5846 5845 5844 5842 5840 5838 5836 5834 5831 5828 5824 5821 5816 5812 5808 5804 5800 5796 5792 5788 5786 5783 5782 5781
5840 5842 5845 5847 5849 5850 5853 5853 5853 5853 5853 5853 5852 5851 5851 5850 5849 5848 5848 5847 5846 5846 5845 5845 5844 5844 5843 5841 5840 5839 5837 5835 5832 5830 5826 5823 5820 5816 5811 5807 5803 5799 5795 5791 5788 5785 5783 5781 5780
5840 5843 5845 5847 5848 5850 5851 5853 5853 5853 5852 5852 5851 5850 5849 5848 5847 5846 5846 5845 5844 5844 5843 5842 5842 5841 5841 5839 5838 5837 5835 5833 5831 5828 5825 5822 5819 5815 5811 5807 5803 5799 5795 5792 5788 5785 5783 5781 5780
5841 5843 5845 5847 5849 5850 5851 5852 5852 5852 5851 5851 5849 5848 5847 5846 5845 5844 5844 5843 5842 5841 5841 5840 5840 5839 5839 5838 5836 5835 5834 5832 5830 5827 5824 5821 5818 5814 5811 5807 5803 5799 5796 5792 5789 5786 5784 5782 5780
5842 5844 5846 5847 5848 5850 5850 5851 5852 5851 5850 5849 5848 5847 5845 5844 5843 5842 5842 5841 5840 5839 5839 5838 5837 5837 5836 5835 5834 5833 5832 5830 5828 5826 5823 5820 5817 5814 5810 5807 5803 5800 5796 5793 5790 5787 5784 5782 5781
5842 5845 5847 5848 5848 5849 5850 5850 5851 5849 5848 5847 5846 5845 5844 5843 5841 5840 5839 5839 5838 5837 5836 5836 5835 5835 5834 5833 5832 5831 5829 5828 5826 5824 5822 5819 5816 5813 5810 5806 5803 5800 5796 5793 5790 5788 5785 5783 5781
5843 5844 5846 5847 5847 5848 5849 5849 5849 5848 5847 5846 5845 5844 5842 5841 5839 5838 5837 5836 5835 5834 5834 5833 5832 5832 5831 5830 5829 5828 5827 5826 5824 5822 5820 5818 5815 5812 5809 5806 5803 5800 5796 5794 5791 5788 5786 5783 5782
5843 5844 5845 5846 5846 5847 5847 5847 5847 5846 5845 5844 5843 5841 5840 5839 5837 5836 5835 5833 5833 5832 5831 5830 5829 5829 5828 5827 5827 5826 5824 5823 5822 5820 5818 5816 5814 5811 5808 5805 5803 5800 5797 5794 5791 5788 5786 5784 5782
5843 5844 5844 5845 5845 5846 5846 5848 5845 5844 5843 5842 5841 5840 5838 5837 5835 5833 5832 5831 5830 5829 5828 5827 5826 5825 5825 5824 5823 5822 5821 5820 5819 5817 5816 5814 5812 5810 5807 5805 5802 5799 5796 5793 5791 5788 5786 5784 5782
5842 5843 5843 5844 5844 5844 5844 5847 5843 5842 5841 5840 5839 5837 5836 5834 5832 5831 5829 5828 5827 5826 5825 5824 5823 5822 5821 5820 5819 5818 5817 5816 5815 5814 5813 5811 5810 5808 5806 5803 5801 5798 5796 5793 5791 5788 5786 5784 5782